Time,TemperatureF,DewpointF,PressureIn,WindDirection,WindDirectionDegrees,WindSpeedMPH,WindSpeedGustMPH,Humidity,HourlyPrecipIn,Conditions,Clouds,dailyrainin,SoftwareType,DateUTC
2013-12-28 00:01:00,36.1,32.0,29.98,WSW,246,10.0,19.0,84,0.05,,,0.06,weatherlink.com 1.10,2013-12-28 05:01:00,
2013-12-28 00:16:00,35.9,32.0,29.98,WSW,257,14.0,16.0,84,0.03,,,0.06,weatherlink.com 1.10,2013-12-28 05:16:00,
2013-12-28 00:31:00,35.8,31.0,29.97,WSW,238,12.0,15.0,84,0.01,,,0.06,weatherlink.com 1.10,2013-12-28 05:31:00,
2013-12-28 01:01:00,35.5,31.0,29.98,WSW,243,9.0,14.0,84,0.01,,,0.07,weatherlink.com 1.10,2013-12-28 06:01:00,
2013-12-28 01:16:00,35.2,31.0,29.97,WSW,250,10.0,15.0,85,0.01,,,0.07,weatherlink.com 1.10,2013-12-28 06:16:00,
2013-12-28 01:31:00,35.1,31.0,29.97,WSW,240,12.0,14.0,85,0.01,,,0.07,weatherlink.com 1.10,2013-12-28 06:31:00,
2013-12-28 01:46:00,34.8,31.0,29.97,WSW,248,11.0,14.0,85,0.01,,,0.07,weatherlink.com 1.10,2013-12-28 06:46:00,
2013-12-28 02:01:00,34.8,31.0,29.97,WSW,242,13.0,16.0,86,0.00,,,0.07,weatherlink.com 1.10,2013-12-28 07:01:00,
2013-12-28 02:16:00,34.7,31.0,29.98,West,264,7.0,12.0,86,0.00,,,0.07,weatherlink.com 1.10,2013-12-28 07:16:00,
2013-12-28 02:31:00,34.5,31.0,29.98,WSW,243,5.0,13.0,86,0.00,,,0.07,weatherlink.com 1.10,2013-12-28 07:31:00,
2013-12-28 02:46:00,34.3,31.0,29.98,WSW,244,7.0,12.0,87,0.00,,,0.07,weatherlink.com 1.10,2013-12-28 07:46:00,
2013-12-28 03:01:00,34.0,31.0,29.99,WSW,243,6.0,8.0,88,0.00,,,0.07,weatherlink.com 1.10,2013-12-28 08:01:00,
2013-12-28 03:16:00,33.8,31.0,30.00,WSW,249,5.0,8.0,88,0.00,,,0.07,weatherlink.com 1.10,2013-12-28 08:16:00,
2013-12-28 03:31:00,33.8,31.0,30.00,WSW,246,5.0,8.0,89,0.00,,,0.07,weatherlink.com 1.10,2013-12-28 08:31:00,
2013-12-28 03:46:00,33.9,31.0,30.00,WSW,238,4.0,6.0,89,0.00,,,0.07,weatherlink.com 1.10,2013-12-28 08:46:00,
2013-12-28 04:01:00,33.9,31.0,30.00,WSW,238,4.0,7.0,89,0.00,,,0.00,weatherlink.com 1.10,2013-12-28 09:01:00,
2013-12-28 04:16:00,33.9,31.0,30.01,WSW,240,6.0,7.0,90,0.00,,,0.00,weatherlink.com 1.10,2013-12-28 09:16:00,
2013-12-28 04:31:00,34.1,32.0,30.02,WSW,242,4.0,6.0,90,0.00,,,0.00,weatherlink.com 1.10,2013-12-28 09:31:00,
2013-12-28 04:46:00,34.1,32.0,30.02,WSW,254,3.0,7.0,90,0.00,,,0.00,weatherlink.com 1.10,2013-12-28 09:46:00,
2013-12-28 05:01:00,34.3,32.0,30.02,SW,236,5.0,8.0,90,0.00,,,0.00,weatherlink.com 1.10,2013-12-28 10:01:00,
2013-12-28 05:16:00,34.3,32.0,30.02,WSW,245,4.0,7.0,90,0.00,,,0.00,weatherlink.com 1.10,2013-12-28 10:16:00,
2013-12-28 05:31:00,34.4,32.0,30.03,WSW,242,3.0,6.0,90,0.00,,,0.00,weatherlink.com 1.10,2013-12-28 10:31:00,
2013-12-28 05:47:00,34.5,32.0,30.03,WSW,239,4.0,6.0,89,0.00,,,0.00,weatherlink.com 1.10,2013-12-28 10:47:00,
2013-12-28 06:02:00,34.5,32.0,30.03,WSW,256,4.0,6.0,89,0.00,,,0.00,weatherlink.com 1.10,2013-12-28 11:02:00,
2013-12-28 06:17:00,34.5,32.0,30.04,WSW,250,3.0,6.0,89,0.00,,,0.00,weatherlink.com 1.10,2013-12-28 11:17:00,
2013-12-28 06:32:00,34.3,31.0,30.05,SW,224,4.0,6.0,89,0.00,,,0.00,weatherlink.com 1.10,2013-12-28 11:32:00,
2013-12-28 06:47:00,34.1,31.0,30.05,WSW,246,6.0,9.0,89,0.00,,,0.00,weatherlink.com 1.10,2013-12-28 11:47:00,
2013-12-28 07:02:00,33.9,31.0,30.05,SW,232,5.0,6.0,90,0.00,,,0.00,weatherlink.com 1.10,2013-12-28 12:02:00,
2013-12-28 07:17:00,33.8,31.0,30.05,SW,233,3.0,7.0,90,0.00,,,0.00,weatherlink.com 1.10,2013-12-28 12:17:00,
2013-12-28 07:32:00,33.3,31.0,30.06,WSW,240,4.0,5.0,90,0.00,,,0.00,weatherlink.com 1.10,2013-12-28 12:32:00,
2013-12-28 07:47:00,32.6,30.0,30.06,WSW,238,4.0,6.0,91,0.00,,,0.00,weatherlink.com 1.10,2013-12-28 12:47:00,
2013-12-28 08:02:00,31.7,30.0,30.05,SW,233,3.0,3.0,92,0.00,,,0.00,weatherlink.com 1.10,2013-12-28 13:02:00,
2013-12-28 08:17:00,31.1,29.0,30.05,SW,225,3.0,6.0,93,0.00,,,0.00,weatherlink.com 1.10,2013-12-28 13:17:00,
2013-12-28 08:32:00,31.1,29.0,30.04,SW,232,3.0,6.0,93,0.00,,,0.00,weatherlink.com 1.10,2013-12-28 13:32:00,
2013-12-28 08:47:00,31.5,30.0,30.05,SW,236,4.0,6.0,93,0.00,,,0.00,weatherlink.com 1.10,2013-12-28 13:47:00,
2013-12-28 09:02:00,31.8,30.0,30.06,WSW,240,4.0,6.0,92,0.00,,,0.00,weatherlink.com 1.10,2013-12-28 14:02:00,
2013-12-28 09:47:00,32.5,30.0,30.08,WSW,246,5.0,9.0,91,0.00,,,0.00,weatherlink.com 1.10,2013-12-28 14:47:00,
2013-12-28 10:02:00,33.0,30.0,30.07,WSW,246,8.0,9.0,90,0.00,,,0.00,weatherlink.com 1.10,2013-12-28 15:02:00,
2013-12-28 10:17:00,33.5,31.0,30.07,SW,214,8.0,9.0,90,0.00,,,0.00,weatherlink.com 1.10,2013-12-28 15:17:00,
2013-12-28 10:32:00,34.1,31.0,30.07,WSW,248,9.0,10.0,89,0.00,,,0.00,weatherlink.com 1.10,2013-12-28 15:32:00,
2013-12-28 10:47:00,34.6,32.0,30.07,WSW,257,5.0,12.0,89,0.00,,,0.00,weatherlink.com 1.10,2013-12-28 15:47:00,
2013-12-28 11:02:00,35.1,32.0,30.07,West,262,6.0,12.0,88,0.01,,,0.01,weatherlink.com 1.10,2013-12-28 16:02:00,
2013-12-28 11:17:00,35.5,32.0,30.05,WSW,239,5.0,11.0,87,0.01,,,0.01,weatherlink.com 1.10,2013-12-28 16:17:00,
2013-12-28 11:32:00,36.0,33.0,30.04,WSW,253,7.0,8.0,87,0.01,,,0.01,weatherlink.com 1.10,2013-12-28 16:32:00,
2013-12-28 11:47:00,36.5,33.0,30.03,SSW,211,5.0,11.0,86,0.01,,,0.01,weatherlink.com 1.10,2013-12-28 16:47:00,
2013-12-28 12:02:00,36.8,33.0,30.02,SW,217,5.0,10.0,86,0.00,,,0.01,weatherlink.com 1.10,2013-12-28 17:02:00,
2013-12-28 12:17:00,36.9,33.0,30.01,SW,226,6.0,12.0,86,0.00,,,0.01,weatherlink.com 1.10,2013-12-28 17:17:00,
2013-12-28 12:32:00,37.6,34.0,30.00,WSW,242,9.0,11.0,85,0.00,,,0.01,weatherlink.com 1.10,2013-12-28 17:32:00,
2013-12-28 12:47:00,38.0,34.0,30.00,WSW,255,8.0,12.0,85,0.01,,,0.02,weatherlink.com 1.10,2013-12-28 17:47:00,
2013-12-28 13:03:00,38.2,34.0,30.00,WSW,243,9.0,13.0,84,0.01,,,0.02,weatherlink.com 1.10,2013-12-28 18:03:00,
2013-12-28 13:18:00,38.3,34.0,29.98,SW,235,5.0,14.0,84,0.01,,,0.02,weatherlink.com 1.10,2013-12-28 18:18:00,
2013-12-28 13:33:00,38.6,34.0,29.97,WSW,238,10.0,12.0,82,0.01,,,0.02,weatherlink.com 1.10,2013-12-28 18:33:00,
2013-12-28 13:48:00,38.9,34.0,29.96,WSW,244,8.0,13.0,82,0.00,,,0.02,weatherlink.com 1.10,2013-12-28 18:48:00,
2013-12-28 14:03:00,39.2,34.0,29.96,West,259,6.0,13.0,81,0.00,,,0.02,weatherlink.com 1.10,2013-12-28 19:03:00,
2013-12-28 14:18:00,39.6,34.0,29.95,WSW,240,6.0,13.0,80,0.00,,,0.02,weatherlink.com 1.10,2013-12-28 19:18:00,
2013-12-28 14:33:00,40.1,34.0,29.94,WSW,240,6.0,10.0,78,0.00,,,0.02,weatherlink.com 1.10,2013-12-28 19:33:00,
2013-12-28 14:48:00,40.8,34.0,29.93,SW,224,4.0,8.0,77,0.00,,,0.02,weatherlink.com 1.10,2013-12-28 19:48:00,
2013-12-28 15:03:00,41.1,34.0,29.92,WSW,250,6.0,8.0,76,0.00,,,0.02,weatherlink.com 1.10,2013-12-28 20:03:00,
2013-12-28 15:18:00,41.4,34.0,29.92,SW,228,7.0,9.0,76,0.00,,,0.02,weatherlink.com 1.10,2013-12-28 20:18:00,
2013-12-28 15:33:00,41.3,34.0,29.92,WSW,243,4.0,12.0,75,0.00,,,0.02,weatherlink.com 1.10,2013-12-28 20:33:00,
2013-12-28 15:48:00,41.3,34.0,29.92,SW,232,6.0,12.0,75,0.00,,,0.02,weatherlink.com 1.10,2013-12-28 20:48:00,
2013-12-28 16:03:00,41.2,34.0,29.92,WSW,240,8.0,8.0,75,0.00,,,0.02,weatherlink.com 1.10,2013-12-28 21:03:00,
2013-12-28 16:18:00,40.9,34.0,29.92,WSW,249,4.0,13.0,76,0.00,,,0.02,weatherlink.com 1.10,2013-12-28 21:18:00,
2013-12-28 16:33:00,40.7,34.0,29.93,SW,232,7.0,14.0,76,0.00,,,0.02,weatherlink.com 1.10,2013-12-28 21:33:00,
2013-12-28 16:48:00,39.9,34.0,29.92,SW,220,8.0,10.0,78,0.00,,,0.02,weatherlink.com 1.10,2013-12-28 21:48:00,
2013-12-28 17:03:00,39.3,33.0,29.92,WSW,253,8.0,9.0,79,0.00,,,0.02,weatherlink.com 1.10,2013-12-28 22:03:00,
2013-12-28 17:18:00,39.0,33.0,29.92,SW,225,4.0,7.0,80,0.00,,,0.02,weatherlink.com 1.10,2013-12-28 22:18:00,
2013-12-28 17:33:00,38.9,33.0,29.92,WSW,242,5.0,7.0,80,0.00,,,0.02,weatherlink.com 1.10,2013-12-28 22:33:00,
2013-12-28 17:48:00,38.5,33.0,29.91,SW,228,4.0,5.0,81,0.00,,,0.02,weatherlink.com 1.10,2013-12-28 22:48:00,
2013-12-28 18:03:00,38.1,33.0,29.91,SW,224,3.0,6.0,82,0.00,,,0.02,weatherlink.com 1.10,2013-12-28 23:03:00,
2013-12-28 18:18:00,37.9,33.0,29.91,SW,221,3.0,6.0,82,0.00,,,0.02,weatherlink.com 1.10,2013-12-28 23:18:00,
2013-12-28 18:33:00,37.8,33.0,29.90,SW,218,3.0,7.0,82,0.00,,,0.02,weatherlink.com 1.10,2013-12-28 23:33:00,
2013-12-28 18:48:00,37.7,33.0,29.89,SW,217,4.0,7.0,82,0.00,,,0.02,weatherlink.com 1.10,2013-12-28 23:48:00,
2013-12-28 19:03:00,37.6,33.0,29.89,SW,233,3.0,6.0,83,0.00,,,0.02,weatherlink.com 1.10,2013-12-29 00:03:00,
2013-12-28 19:18:00,37.4,32.0,29.88,SW,217,4.0,5.0,82,0.00,,,0.02,weatherlink.com 1.10,2013-12-29 00:18:00,
2013-12-28 19:33:00,37.1,32.0,29.87,SW,235,2.0,5.0,83,0.00,,,0.02,weatherlink.com 1.10,2013-12-29 00:33:00,
2013-12-28 19:48:00,37.1,32.0,29.88,SW,215,4.0,8.0,83,0.00,,,0.02,weatherlink.com 1.10,2013-12-29 00:48:00,
2013-12-28 20:03:00,37.2,33.0,29.88,WSW,243,7.0,9.0,83,0.00,,,0.02,weatherlink.com 1.10,2013-12-29 01:03:00,
2013-12-28 20:18:00,37.5,33.0,29.87,SSW,210,3.0,9.0,82,0.00,,,0.02,weatherlink.com 1.10,2013-12-29 01:18:00,
2013-12-28 20:33:00,37.5,33.0,29.87,SSW,210,4.0,8.0,82,0.00,,,0.02,weatherlink.com 1.10,2013-12-29 01:33:00,
2013-12-28 20:48:00,37.2,32.0,29.86,SW,231,3.0,6.0,82,0.00,,,0.02,weatherlink.com 1.10,2013-12-29 01:48:00,
2013-12-28 21:03:00,36.9,32.0,29.86,WSW,248,6.0,7.0,82,0.00,,,0.02,weatherlink.com 1.10,2013-12-29 02:03:00,
2013-12-28 21:18:00,37.1,32.0,29.86,SW,231,6.0,8.0,81,0.00,,,0.02,weatherlink.com 1.10,2013-12-29 02:18:00,
2013-12-28 21:33:00,37.6,32.0,29.86,WSW,238,6.0,9.0,80,0.00,,,0.02,weatherlink.com 1.10,2013-12-29 02:33:00,
2013-12-28 21:48:00,38.3,32.0,29.86,SW,235,7.0,11.0,79,0.00,,,0.02,weatherlink.com 1.10,2013-12-29 02:48:00,
2013-12-28 22:03:00,39.3,33.0,29.85,WSW,255,8.0,12.0,78,0.00,,,0.02,weatherlink.com 1.10,2013-12-29 03:03:00,
2013-12-28 22:18:00,39.9,33.0,29.84,SW,233,6.0,11.0,77,0.00,,,0.02,weatherlink.com 1.10,2013-12-29 03:18:00,
2013-12-28 22:33:00,40.0,33.0,29.84,SW,236,10.0,10.0,77,0.00,,,0.02,weatherlink.com 1.10,2013-12-29 03:33:00,
2013-12-28 22:48:00,39.9,34.0,29.84,WSW,243,8.0,13.0,78,0.00,,,0.02,weatherlink.com 1.10,2013-12-29 03:48:00,
2013-12-28 23:04:00,39.9,34.0,29.83,WSW,243,6.0,15.0,78,0.00,,,0.02,weatherlink.com 1.10,2013-12-29 04:04:00,
2013-12-28 23:34:00,40.0,34.0,29.83,SW,222,9.0,16.0,78,0.00,,,0.02,weatherlink.com 1.10,2013-12-29 04:34:00,
2013-12-28 23:49:00,40.1,33.0,29.82,WSW,248,12.0,16.0,77,0.00,,,0.02,weatherlink.com 1.10,2013-12-29 04:49:00,